CAPE
0 0 0 0 0 0 0 0 0 0 0 0 0 309 518 405 225 88 536 1179 1808 1771 1882 2093 2094 2003 1829 1676 1667 1594 1410 1391 1449 1501 1473 1487 1668 1802 1763 1721 1721 1654 1006 379 47 126 186 121 72
0 0 0 0 0 0 0 0 0 0 0 0 0 564 807 732 1250 1498 1599 1860 1759 1716 1776 1706 2138 2002 1804 1643 1579 1563 1431 1364 1429 1562 1573 1488 1525 1628 1730 1782 1795 1492 749 220 71 140 208 145 112
0 0 0 0 0 0 0 0 0 0 0 0 0 575 572 1131 1250 1399 1646 1745 1774 1613 1566 1757 2195 1998 1837 1703 1541 1528 1371 1326 1419 1660 1624 1544 1469 1432 1398 1422 1409 1021 452 109 73 226 464 311 176
0 0 0 0 0 0 0 0 0 0 0 0 541 863 665 634 1149 1639 2016 1888 1604 1574 1480 2112 2164 1990 1828 1728 1618 1594 1390 1356 1403 1701 1711 1627 1558 1427 1339 1244 1078 853 364 191 224 594 776 578 314
0 0 0 0 0 0 0 0 0 0 0 0 52 846 651 906 1694 1938 1942 1595 1663 1635 1694 1941 2161 2040 1889 1796 1703 1673 1472 1357 1373 1598 1728 1690 1529 1414 1350 1184 1005 769 596 343 265 633 736 640 474
0 0 0 0 0 0 0 0 0 0 0 0 2 7 23 1084 1626 1747 1590 1436 1955 1833 1813 1917 2190 2094 1840 1755 1696 1610 1460 1405 1413 1412 1566 1627 1471 1417 1322 1077 876 681 655 544 457 648 591 491 300
0 0 0 0 0 0 0 0 0 0 0 0 0 0 0 9 1334 1609 1384 1395 2030 1888 1837 1908 1907 2018 1918 1694 1592 1549 1441 1381 1338 1295 1360 1380 1388 1362 1208 955 772 651 545 471 334 279 275 134 24
0 0 0 0 0 0 0 0 0 0 0 0 0 0 0 0 416 1225 1266 1578 1958 1765 1643 1843 1852 1783 1556 1479 1641 1531 1475 1437 1329 1330 1344 1286 1310 1283 1100 666 639 574 409 218 66 51 23 0 0
0 0 0 0 0 0 0 0 0 0 0 0 0 0 0 0 86 205 944 1742 1895 1545 1486 1617 1857 1794 1530 1331 1499 1612 1648 1544 1404 1427 1354 1070 885 948 896 527 679 554 367 179 51 18 0 0 0
0 0 0 0 0 0 0 0 0 0 0 0 0 0 0 0 0 36 359 1427 2046 1635 1295 1380 1567 1521 1538 1709 1632 1376 1436 1349 1175 1165 1087 785 672 567 680 517 770 573 382 209 77 7 0 0 0
0 0 0 0 0 0 0 0 0 0 0 10 0 0 0 0 0 0 90 416 1199 1203 1298 1248 1158 1091 1202 1580 1617 1551 1479 1351 1077 1107 886 572 536 562 563 268 471 246 262 35 17 1 0 0 0
0 0 0 0 0 0 0 0 0 0 0 0 0 0 0 0 0 0 0 247 889 1112 1070 647 617 821 803 1585 1382 1107 1083 1083 1178 1032 783 489 390 395 407 179 221 92 49 0 0 0 0 0 0
0 0 0 0 0 0 0 0 0 0 0 0 0 0 0 0 0 0 0 0 365 969 857 67 40 18 566 1345 83 285 1146 1208 1301 1066 939 588 386 438 237 185 114 58 1 0 0 0 0 0 0
0 0 0 0 0 0 0 0 0 0 0 0 0 0 0 0 0 0 0 0 226 739 276 0 91 448 553 149 6 0 3 1320 1429 1299 1162 776 519 475 263 179 71 24 0 0 0 0 0 0 0
0 0 0 0 0 0 0 0 0 0 0 0 0 0 0 0 0 0 0 0 0 167 212 15 266 1035 849 313 24 0 1 1222 1579 1454 1283 1184 745 650 493 218 93 45 6 0 0 0 0 0 0
0 0 0 0 0 0 0 0 0 0 0 0 0 0 0 0 0 0 0 0 0 14 150 0 215 974 625 223 37 50 63 509 1552 1581 1484 1553 1296 768 555 301 168 87 23 0 0 0 0 0 0
0 0 0 0 0 0 0 0 0 0 0 0 0 0 0 0 0 0 0 0 0 220 558 388 484 255 128 72 20 3 164 663 1026 1010 1249 1461 1650 1065 562 544 242 175 29 0 0 0 0 0 2
0 0 0 0 0 0 0 0 0 0 0 0 0 0 0 0 0 0 0 0 0 0 741 719 161 79 0 0 29 611 1478 768 826 739 560 763 1381 1356 561 584 512 121 116 40 11 4 0 0 21
0 0 0 0 0 0 0 0 0 0 0 0 0 0 0 0 0 0 0 0 0 0 34 406 398 164 0 0 798 1435 1554 1184 1042 673 526 470 661 1032 1011 728 529 176 204 206 29 88 112 28 43
0 0 0 0 0 0 0 0 0 0 0 0 0 0 0 0 0 0 0 0 0 0 0 0 0 93 1319 1445 1591 1929 1613 1419 1487 1326 910 465 569 666 998 1021 861 461 402 225 238 171 176 159 98
0 0 0 0 0 0 0 0 0 0 0 0 0 0 0 0 0 0 0 0 0 0 0 0 8 0 0 201 1258 1617 1584 1233 1323 1170 1305 1320 943 852 679 709 984 804 577 503 299 336 300 293 176
0 0 0 0 0 0 0 0 0 0 0 0 0 0 0 0 0 0 0 0 0 0 0 0 0 0 0 0 8 120 679 1117 1122 1327 1158 1250 1207 1165 973 656 489 808 650 543 471 405 358 364 281
0 0 0 0 0 0 0 0 0 0 0 0 0 0 0 0 0 0 0 0 0 0 0 0 0 0 0 0 0 0 0 103 357 543 646 803 961 1116 1337 1103 750 548 525 410 473 400 367 374 352
0 0 0 0 0 0 0 0 0 0 0 0 0 0 0 0 0 0 0 0 0 0 0 0 0 0 0 0 0 0 0 0 0 0 130 363 564 606 857 1015 1110 812 575 347 330 294 255 318 360
0 0 0 0 0 0 0 0 0 0 0 0 0 0 0 0 0 0 0 0 0 0 0 0 0 0 0 0 0 0 0 0 0 0 0 117 362 247 386 967 953 907 910 544 379 410 318 424 481
5 2 0 0 0 0 0 0 0 0 0 0 0 0 0 0 0 0 0 0 0 0 0 0 0 0 0 0 0 0 0 0 0 0 6 0 2 35 197 469 962 1023 738 586 205 1 0 0 1
2 0 0 0 0 0 0 0 0 0 0 0 0 0 0 0 0 0 0 0 0 0 0 0 0 0 0 0 0 0 0 0 0 0 0 1 0 1 0 46 587 1055 1038 537 296 42 0 0 0
5 0 0 0 0 0 0 0 0 0 0 0 0 0 0 0 0 0 0 0 0 0 0 0 0 0 0 0 0 0 0 0 0 0 0 0 0 0 7 0 0 316 1171 644 271 47 13 2 28
0 0 0 0 0 0 0 0 0 0 0 0 0 0 0 0 0 0 0 0 0 0 0 0 0 0 0 0 0 0 0 0 0 0 0 20 35 0 0 0 0 0 536 813 180 0 17 160 533
0 0 0 0 0 0 0 0 0 0 0 0 0 0 0 0 0 0 0 0 0 0 0 0 0 0 0 0 0 0 0 0 0 0 0 14 9 0 0 18 2 24 295 740 859 804 917 752 685
CIN
0 0 0 0 0 0 0 0 0 0 0 0 0 -69 -111 -157 -138 -83 -582 -519 -478 -472 -355 -244 -205 -243 -277 -290 -251 -215 -203 -166 -122 -79 -59 -42 -23 -15 -14 -11 -11 -14 -70 -150 -346 -239 -183 -210 -258
0 0 0 0 0 0 0 0 0 0 0 0 0 -80 -104 -160 -227 -425 -448 -450 -476 -477 -395 -334 -201 -230 -264 -266 -249 -218 -199 -183 -126 -61 -38 -32 -23 -19 -13 -9 -12 -32 -101 -218 -321 -244 -193 -241 -258
0 0 0 0 0 0 0 0 0 0 0 0 0 -82 -96 -109 -248 -332 -443 -455 -424 -441 -429 -347 -213 -217 -259 -264 -242 -198 -208 -192 -138 -57 -32 -22 -25 -30 -31 -33 -39 -76 -157 -274 -306 -216 -137 -173 -232
0 0 0 0 0 0 0 0 0 0 0 0 -50 -91 -107 -157 -145 -319 -390 -399 -428 -392 -415 -296 -221 -206 -241 -244 -232 -199 -190 -168 -141 -59 -33 -26 -22 -32 -44 -62 -92 -122 -203 -244 -223 -147 -111 -130 -171
0 0 0 0 0 0 0 0 0 0 0 0 -87 -67 -105 -166 -256 -317 -324 -367 -380 -322 -309 -298 -216 -181 -206 -219 -197 -172 -182 -179 -133 -64 -36 -28 -36 -48 -63 -87 -112 -146 -176 -226 -234 -148 -134 -148 -165
0 0 0 0 0 0 0 0 0 0 0 0 -58 -69 -86 -148 -230 -274 -293 -331 -276 -296 -246 -247 -193 -141 -139 -163 -171 -155 -157 -152 -133 -89 -39 -23 -39 -46 -60 -92 -122 -154 -167 -184 -196 -157 -167 -187 -216
0 0 0 0 0 0 0 0 0 0 0 0 0 0 0 -177 -150 -187 -246 -272 -234 -241 -211 -177 -179 -119 -86 -107 -131 -134 -137 -118 -111 -102 -66 -39 -30 -35 -57 -101 -151 -171 -189 -192 -235 -252 -256 -292 -362
0 0 0 0 0 0 0 0 0 0 0 0 0 0 0 0 -157 -156 -200 -216 -216 -246 -259 -174 -134 -102 -91 -90 -74 -100 -115 -116 -108 -92 -68 -54 -28 -26 -47 -165 -184 -202 -261 -322 -362 -350 -313 0 0
0 0 0 0 0 0 0 0 0 0 0 0 0 0 0 0 -167 -265 -206 -169 -119 -116 -147 -153 -194 -146 -116 -113 -74 -58 -56 -68 -86 -67 -65 -93 -119 -77 -84 -198 -146 -197 -263 -327 -434 -485 0 0 0
0 0 0 0 0 0 0 0 0 0 0 0 0 0 0 0 0 -63 -235 -153 -78 -104 -158 -157 -113 -85 -153 -89 -45 -45 -35 -40 -57 -64 -73 -152 -195 -235 -170 -225 -125 -194 -258 -325 -405 -517 0 0 0
0 0 0 0 0 0 0 0 0 0 0 -17 0 0 0 0 0 0 -164 -235 -234 -273 -212 -151 -155 -96 -30 -10 -62 -39 -21 -23 -47 -51 -104 -215 -243 -236 -236 -381 -247 -365 -337 -558 -257 -66 0 0 0
0 0 0 0 0 0 0 0 0 0 0 0 0 0 0 0 0 0 0 -261 -324 -292 -324 -352 -367 -226 -76 -37 -34 -54 -75 -77 -52 -62 -120 -229 -284 -313 -328 -491 -442 -559 -598 0 0 0 0 0 0
0 0 0 0 0 0 0 0 0 0 0 0 0 0 0 0 0 0 0 0 -380 -261 -309 -528 -645 -744 -442 -43 -179 -280 -31 -45 -103 -97 -101 -185 -275 -266 -382 -461 -538 -627 -463 0 0 0 0 0 0
0 0 0 0 0 0 0 0 0 0 0 0 0 0 0 0 0 0 0 0 -328 -292 -384 -1 -619 -461 -380 -447 -400 0 -157 -75 -34 -132 -143 -162 -214 -253 -359 -420 -579 -695 0 0 0 0 0 0 0
0 0 0 0 0 0 0 0 0 0 0 0 0 0 0 0 0 0 0 0 0 -378 -410 -659 -447 -257 -211 -400 -651 0 -634 -220 -132 -84 -129 -157 -202 -233 -276 -382 -563 -688 -843 0 0 0 0 0 0
0 0 0 0 0 0 0 0 0 0 0 0 0 0 0 0 0 0 0 0 0 -295 -454 0 -385 -282 -304 -410 -647 -536 -462 -285 -263 -160 -157 -189 -172 -245 -226 -365 -494 -585 -761 0 0 0 0 0 0
0 0 0 0 0 0 0 0 0 0 0 0 0 0 0 0 0 0 0 0 0 -393 -392 -397 -366 -462 -518 -465 -444 -106 -311 -305 -231 -230 -170 -208 -150 -185 -229 -170 -374 -416 -607 0 0 0 0 0 -627
0 0 0 0 0 0 0 0 0 0 0 0 0 0 0 0 0 0 0 0 0 0 -334 -291 -357 -418 0 0 -348 -152 -88 -210 -255 -256 -255 -232 -172 -165 -211 -200 -224 -517 -427 -575 -674 -500 0 0 -579
0 0 0 0 0 0 0 0 0 0 0 0 0 0 0 0 0 0 0 0 0 0 -213 -292 -275 -321 0 0 -164 -59 -95 -133 -122 -175 -183 -230 -234 -156 -177 -180 -236 -438 -375 -391 -533 -450 -445 -552 -570
0 0 0 0 0 0 0 0 0 0 0 0 0 0 0 0 0 0 0 0 0 0 0 0 0 -246 -195 -190 -181 -108 -124 -128 -82 -121 -128 -176 -159 -162 -152 -128 -155 -234 -235 -313 -324 -368 -368 -359 -455
0 0 0 0 0 0 0 0 0 0 0 0 0 0 0 0 0 0 0 0 0 0 0 0 -283 0 0 -202 -124 -112 -128 -139 -55 -87 -40 -80 -108 -116 -143 -114 -81 -144 -177 -128 -234 -209 -207 -225 -381
0 0 0 0 0 0 0 0 0 0 0 0 0 0 0 0 0 0 0 0 0 0 0 0 0 0 0 0 -71 -305 -157 -62 -81 -63 -80 -72 -88 -75 -69 -97 -154 -108 -147 -132 -147 -197 -204 -164 -220
0 0 0 0 0 0 0 0 0 0 0 0 0 0 0 0 0 0 0 0 0 0 0 0 0 0 0 0 0 0 0 -333 -190 -127 -125 -82 -76 -79 -36 -53 -69 -97 -106 -143 -100 -102 -155 -129 -110
0 0 0 0 0 0 0 0 0 0 0 0 0 0 0 0 0 0 0 0 0 0 0 0 0 0 0 0 0 0 0 0 0 0 -224 -155 -106 -85 -64 -38 -37 -28 -49 -103 -134 -117 -90 -75 -70
0 0 0 0 0 0 0 0 0 0 0 0 0 0 0 0 0 0 0 0 0 0 0 0 0 0 0 0 0 0 0 0 0 0 0 -210 -132 -131 -117 -54 -61 -43 -25 -45 -69 -46 -37 -47 -24
-54 -51 0 0 0 0 0 0 0 0 0 0 0 0 0 0 0 0 0 0 0 0 0 0 0 0 0 0 0 0 0 0 0 0 -220 0 -29 -184 -141 -89 -32 -41 -43 -41 -101 -30 0 0 -112
-68 0 0 0 0 0 0 0 0 0 0 0 0 0 0 0 0 0 0 0 0 0 0 0 0 0 0 0 0 0 0 0 0 0 0 -35 0 -14 0 -134 -47 -10 -20 -65 -86 -167 0 0 0
-24 0 0 0 0 0 0 0 0 0 0 0 0 0 0 0 0 0 0 0 0 0 0 0 0 0 0 0 0 0 0 0 0 0 0 0 0 0 -67 0 0 -46 -4 -53 -110 -169 -302 -116 -79
0 0 0 0 0 0 0 0 0 0 0 0 0 0 0 0 0 0 0 0 0 0 0 0 0 0 0 0 0 0 0 0 0 0 0 -186 -152 0 0 0 0 0 -21 -13 -115 0 -282 -125 -23
0 0 0 0 0 0 0 0 0 0 0 0 0 0 0 0 0 0 0 0 0 0 0 0 0 0 0 0 0 0 0 0 0 0 0 -201 -184 0 0 -98 -9 -94 -51 -6 -8 -15 -4 -13 -6
Wind_Speed
7 7 2 4 3 4 5 9 5 9 8 5 6 9 7 4 2 5 1 13 20 19 16 15 16 18 20 21 21 20 20 19 19 18 17 17 17 17 16 15 15 14 16 15 14 14 13 12 12
4 5 5 2 3 1 7 6 17 10 10 16 11 6 7 1 4 8 6 14 18 18 15 16 15 18 20 20 20 20 20 20 19 17 17 16 16 16 15 14 14 14 14 14 15 14 12 11 10
3 1 3 4 4 9 7 7 11 6 10 13 4 6 3 1 9 8 10 17 15 15 14 15 17 17 20 21 20 18 19 20 20 18 17 16 15 15 14 13 12 13 13 13 13 13 10 9 7
3 5 4 3 10 10 13 14 13 20 14 10 3 8 4 4 4 7 16 17 15 12 12 19 17 16 18 20 20 19 19 19 19 19 17 16 15 13 13 13 13 12 12 12 12 11 9 7 6
3 4 2 4 10 9 13 13 9 10 19 14 3 2 3 4 15 17 15 13 14 11 10 14 17 15 17 19 19 18 19 19 19 17 17 16 15 14 13 13 12 11 11 12 12 9 8 7 5
3 3 1 9 10 8 11 6 7 12 19 5 7 5 1 7 17 14 15 14 12 14 10 11 15 13 13 15 18 17 17 17 18 17 15 14 14 13 12 11 11 10 10 10 10 8 8 7 6
5 4 5 5 4 7 10 7 10 9 14 3 2 3 1 2 12 16 15 14 13 14 12 8 9 11 11 11 14 16 16 15 15 15 14 13 12 11 11 11 11 10 9 8 9 9 9 8 7
4 4 3 4 4 9 10 6 8 20 18 1 6 2 3 4 15 10 11 10 10 12 16 14 10 8 6 6 9 13 16 16 15 15 14 13 12 11 10 9 10 10 10 11 10 9 9 9 9
3 1 5 6 6 5 15 6 11 19 10 7 3 5 3 2 7 9 12 9 7 6 5 4 14 13 9 8 9 10 13 14 16 14 15 11 6 6 8 8 10 11 11 10 11 10 10 10 9
5 4 10 8 7 6 15 9 12 17 20 10 11 9 10 3 7 11 9 9 9 9 7 6 5 3 9 9 6 5 6 4 5 6 8 5 6 7 7 8 12 12 12 12 11 11 11 9 4
5 10 7 10 13 17 24 16 18 17 9 26 20 10 4 2 2 4 10 14 14 15 10 8 8 6 3 3 4 4 3 3 3 6 8 7 6 6 5 4 5 4 10 4 6 6 4 6 5
4 9 13 16 16 14 8 9 9 7 21 17 30 2 2 6 6 1 8 9 14 15 19 14 13 11 4 4 2 0 4 5 5 7 8 6 5 6 6 6 7 6 4 6 5 4 5 6 7
8 15 14 17 16 16 11 14 17 6 8 7 8 14 26 9 8 6 4 11 12 7 10 13 14 15 17 8 5 4 2 5 9 8 10 8 8 8 7 7 6 7 6 7 6 5 5 6 7
8 17 19 16 17 11 13 11 5 9 2 7 6 11 12 7 9 5 4 0 12 15 15 9 12 13 16 16 14 5 4 8 9 11 12 14 10 9 9 9 9 8 8 8 7 8 7 7 5
6 6 14 19 13 9 10 7 11 9 6 9 10 9 9 9 9 9 4 3 8 11 14 15 14 14 17 17 14 10 13 12 12 13 14 16 14 12 11 10 11 11 10 11 6 6 5 5 5
4 1 3 6 7 10 7 17 7 12 8 11 11 8 8 10 6 4 4 1 3 11 17 17 13 13 14 15 10 10 13 15 19 13 13 17 17 14 12 10 11 10 9 8 9 10 10 9 7
5 4 4 8 4 2 6 7 16 9 7 8 10 10 10 9 6 5 6 5 6 9 9 11 9 10 13 10 8 8 11 8 8 9 11 14 17 16 11 10 9 7 8 9 9 9 9 9 9
5 4 5 7 11 6 12 14 12 5 7 12 10 11 9 9 11 9 8 4 6 9 11 11 10 9 8 3 4 5 3 8 8 6 7 12 12 14 12 11 10 6 8 7 6 5 4 5 8
5 7 9 12 12 4 11 18 11 5 4 7 7 7 9 9 11 7 5 4 0 3 12 13 12 14 9 7 8 7 6 5 3 5 8 7 8 13 15 13 12 9 9 8 7 6 7 7 3
11 15 16 9 7 3 6 5 7 5 8 9 11 10 10 8 8 5 9 8 8 5 1 4 6 6 1 4 6 5 5 4 5 5 6 6 10 16 15 16 13 12 10 11 9 7 4 6 6
11 6 5 6 4 3 2 7 4 6 5 5 5 1 2 3 1 9 9 7 9 10 8 8 7 8 3 1 1 2 2 1 3 4 5 10 12 14 14 15 10 13 12 12 13 12 14 10 6
5 9 3 2 4 2 4 5 5 5 10 7 6 8 9 9 6 9 8 8 8 6 7 7 7 7 7 6 6 3 0 2 4 4 4 6 8 11 12 12 12 15 9 13 13 11 13 12 11
8 4 4 3 4 3 7 3 8 3 4 4 6 6 5 8 9 7 7 7 5 6 6 6 7 8 7 7 6 3 2 2 2 3 5 5 6 8 11 12 12 15 9 9 14 12 13 13 12
2 1 6 5 3 3 4 4 5 3 5 4 3 6 7 7 7 6 5 5 3 2 5 5 6 3 4 4 3 3 4 5 5 2 3 4 5 5 7 12 12 12 12 10 10 8 8 11 11
7 6 4 4 5 3 5 4 7 8 3 4 8 6 6 6 6 6 8 5 5 6 4 5 5 2 1 1 3 4 5 6 6 7 4 5 4 5 6 7 11 11 13 13 12 8 4 5 9
1 7 5 3 2 3 4 1 5 2 8 7 6 6 5 5 2 3 9 7 7 6 4 3 3 3 4 4 6 6 7 5 5 7 6 5 5 6 7 7 10 14 14 11 10 6 7 7 11
3 3 5 4 5 2 4 4 3 3 4 3 4 1 13 13 13 10 11 10 11 9 10 9 10 10 10 8 6 7 7 7 7 8 7 5 6 5 7 7 10 14 14 16 17 11 12 17 19
6 3 5 4 4 4 3 4 6 0 4 5 8 12 9 8 10 9 9 9 8 7 7 9 9 7 7 8 7 7 8 8 8 7 8 8 7 6 6 8 9 12 15 12 15 13 16 17 14
3 2 3 3 4 5 1 4 6 3 7 11 7 7 7 7 7 7 7 6 5 6 8 8 8 8 10 11 8 7 7 9 9 7 7 8 7 7 7 7 7 12 15 13 15 15 16 19 19
3 3 1 4 4 3 5 6 4 15 11 7 6 6 5 5 6 6 7 8 8 8 10 10 10 12 12 12 8 8 7 7 6 7 9 8 8 6 7 6 8 11 14 15 15 19 17 21 18
Wind_Direction
313 312 298 36 38 73 250 249 249 276 313 233 259 118 145 293 146 198 326 143 138 141 151 160 165 147 138 135 134 132 132 129 124 123 123 123 123 125 127 127 128 129 130 130 132 131 132 131 124
333 314 34 78 120 210 257 241 254 256 267 293 274 108 56 21 56 112 100 149 144 140 149 155 164 150 142 138 137 136 136 131 128 127 128 128 128 130 131 130 133 134 135 139 140 139 138 133 126
327 304 83 152 183 211 228 224 258 291 300 296 192 61 75 45 118 151 131 140 139 142 149 151 158 156 146 142 140 139 140 136 134 134 135 136 137 136 133 135 136 138 142 145 144 143 141 136 135
22 16 4 165 231 250 233 263 360 329 312 270 352 85 52 280 132 150 137 139 134 143 151 149 153 158 149 145 144 144 144 142 141 142 143 145 143 140 140 144 145 148 152 150 149 149 145 141 146
39 71 250 231 241 264 268 286 327 294 284 327 171 88 92 24 104 124 134 141 137 141 151 145 149 158 154 149 148 147 148 147 146 148 150 152 151 152 152 153 153 155 156 154 153 152 150 152 162
31 108 211 242 251 270 279 329 300 266 285 323 2 113 188 118 127 146 145 149 148 142 145 145 143 149 156 153 150 149 150 152 150 152 155 158 158 159 158 157 157 159 157 155 155 155 162 170 185
143 117 224 229 257 272 279 325 274 265 269 326 180 30 36 143 160 159 155 152 147 141 134 135 135 142 152 158 154 151 152 155 153 153 156 160 163 164 163 162 162 161 156 159 162 169 178 188 199
136 108 256 226 268 283 283 266 260 286 258 214 132 258 245 246 155 141 146 139 147 152 150 146 135 130 132 144 163 159 160 157 158 159 159 161 165 166 169 169 169 168 168 173 178 186 189 197 212
98 359 244 233 232 271 286 293 300 283 257 91 324 178 236 290 113 115 126 117 112 88 72 114 149 147 147 150 167 166 167 166 163 165 164 158 159 169 178 184 182 180 182 187 189 192 197 208 222
144 160 232 227 248 245 260 247 280 302 271 261 285 294 343 345 95 113 115 137 137 119 106 99 73 15 153 157 145 139 162 153 166 167 166 166 170 171 180 190 192 192 194 195 199 203 204 213 219
198 228 229 249 237 237 246 278 276 268 268 190 232 284 206 324 6 132 139 146 148 147 138 144 116 96 30 7 141 155 154 162 173 183 178 180 180 184 180 181 197 204 209 206 203 207 213 212 214
231 244 235 254 257 261 262 258 286 245 238 192 244 360 107 245 263 154 112 162 152 161 160 147 141 139 161 119 132 134 190 184 199 200 195 186 189 193 191 191 191 190 201 209 218 211 211 219 225
206 238 237 240 250 253 249 257 250 287 296 248 182 29 280 280 255 280 222 134 133 154 177 167 173 166 138 137 106 103 220 232 197 200 203 197 193 197 198 200 192 201 197 202 208 213 219 230 229
224 231 245 260 254 253 254 255 193 246 182 194 206 198 239 242 276 279 310 178 164 177 195 181 187 160 146 155 156 201 163 218 233 203 199 204 204 202 200 202 201 203 199 207 208 205 209 222 223
226 227 258 248 249 234 194 206 238 222 232 237 228 217 236 247 255 259 245 258 159 188 192 190 183 178 186 184 172 170 187 189 206 215 209 197 208 208 208 211 200 206 203 200 194 214 223 222 220
322 298 251 269 214 245 141 258 242 245 208 223 225 221 248 263 220 242 255 61 28 165 186 191 187 183 193 197 180 187 203 205 192 206 200 198 205 202 220 216 219 219 194 210 208 202 201 216 207
355 255 286 308 218 245 163 266 254 244 186 233 229 210 221 249 256 231 230 181 131 143 171 187 187 179 186 200 191 223 227 210 212 196 202 201 204 203 198 235 226 222 213 198 215 216 215 223 217
240 300 292 268 279 269 259 238 254 239 218 228 212 213 222 225 239 240 250 207 144 147 161 185 191 196 194 202 239 246 231 218 220 211 209 203 206 203 210 220 223 192 216 225 218 231 218 251 226
267 281 268 274 255 206 263 226 231 231 215 271 279 246 228 231 243 246 258 337 60 137 156 176 189 205 179 195 216 216 213 214 229 239 225 224 214 216 211 218 216 191 208 214 209 205 211 232 204
256 264 269 263 305 28 354 219 219 211 209 202 212 232 246 251 257 314 45 69 74 50 187 115 16 351 284 216 212 195 193 215 217 202 210 227 215 224 221 225 219 214 214 210 205 193 200 223 181
237 211 250 259 305 16 31 331 319 300 335 299 221 334 24 77 22 98 73 62 70 56 41 49 66 124 102 58 24 14 32 49 234 237 240 223 217 227 220 231 227 222 219 224 216 206 210 222 202
273 248 261 32 72 256 77 268 302 312 324 22 33 115 117 109 90 102 106 81 83 79 75 75 51 54 80 88 71 59 329 240 259 245 241 251 227 220 232 234 232 235 227 227 217 217 215 219 215
234 247 158 121 107 104 338 74 273 310 45 92 86 82 84 111 105 104 106 108 97 87 82 78 62 53 38 42 52 59 20 191 222 271 285 275 270 243 238 222 223 232 234 228 241 219 215 220 228
331 321 40 53 68 9 214 155 288 303 157 146 148 147 135 123 116 126 141 123 106 71 89 98 87 69 49 62 58 23 329 314 325 290 262 258 253 270 266 256 228 224 228 225 231 260 256 239 224
68 48 2 353 9 224 29 32 255 342 92 158 156 136 135 139 145 165 169 170 173 178 178 168 139 149 185 320 287 240 243 262 270 276 253 246 256 273 263 247 263 240 228 225 211 212 254 272 261
83 126 143 229 217 201 111 266 287 172 119 133 140 140 121 176 249 289 15 352 322 335 10 334 306 242 220 215 234 244 251 240 238 237 248 237 232 261 275 257 255 258 244 210 219 199 168 286 262
330 68 182 95 233 311 225 168 33 36 39 80 60 78 40 42 32 36 19 19 21 17 12 353 352 339 325 289 248 238 240 246 247 247 236 234 249 258 267 283 275 262 253 217 206 217 214 214 233
137 107 29 352 203 221 243 178 161 122 244 199 42 62 43 29 25 18 21 15 11 13 356 357 357 345 320 314 309 309 292 264 247 244 243 241 240 239 260 282 284 281 261 215 213 220 226 220 232
42 91 122 150 152 183 209 243 150 243 48 81 62 57 49 37 22 6 355 351 339 344 349 333 329 324 321 317 309 309 304 305 294 261 248 237 240 246 250 266 276 280 271 227 218 213 216 225 231
203 225 135 133 244 189 144 277 2 93 85 83 62 38 25 15 345 342 339 345 350 347 343 344 337 329 322 308 303 303 299 303 303 303 300 287 271 256 251 277 290 288 282 257 235 228 221 224 224